Hourly Data Report for September 02, 2019

SAINT JOHN A
NEW BRUNSWICK
Current Station Operator: NAVCAN

45°18'58.000" N
65°53'24.000" W
108.80 m
8104901
71609
YSJ

Download Data

Hourly Data (September 2019)
Hourly Data Report for September 2, 2019
TIME
LST
Temp Definition
°C
Dew Point Definition
°C
Rel Hum Definition
%
Precip. Amount Definition
mm

Wind Dir Definition
10's deg

Wind Spd Definition
km/h
Visibility Definition
km
Stn Press Definition
kPa
Hmdx Definition


Wind Chill Definition


Weather Definition


00:00 4.6 4.5 100   36 1 24.1 101.34     LegendNANA
01:00 4.7 4.3 97   36 1 24.1 101.32     LegendNANA
02:00 4.2 4.0 99   36 1 24.1 101.30     Clear
03:00 3.0 2.9 99   6 3 24.1 101.27     LegendNANA
04:00 4.8 4.6 99   35 3 24.1 101.18     LegendNANA
05:00 5.0 4.9 99   36 2 24.1 101.15     Mainly Clear
06:00 5.8 5.4 97   36 1 24.1 101.16     LegendNANA
07:00 11.7 10.1 90   18 8 24.1 101.13     LegendNANA
08:00 12.7 11.2 90   14 14 24.1 101.10     Mostly Cloudy
09:00 14.6 8.7 67   15 14 24.1 101.05     LegendNANA
10:00 16.8 8.8 59   16 12 24.1 101.01     LegendNANA
11:00 16.5 11.7 73   16 17 24.1 100.93     Cloudy
12:00 17.0 12.5 74   17 15 24.1 100.84     LegendNANA
13:00 18.8 13.8 72   16 17 24.1 100.77     LegendNANA
14:00 20.7 14.6 68   18 16 24.1 100.65     Cloudy
15:00 19.1 15.6 79   18 11 24.1 100.60     LegendNANA
16:00 18.0 15.9 87   22 15 16.1 100.58     Rain Showers
17:00 17.1 16.3 95   17 10 24.1 100.43     Cloudy
18:00 16.6 15.5 93   17 17 24.1 100.39     LegendNANA
19:00 16.6 16.1 97   17 12 24.1 100.36     Rain
20:00 16.4 16.3 100   23 8 24.1 100.36     Rain
21:00 16.1 15.7 97   21 16 24.1 100.32     LegendNANA
22:00 16.1 15.7 97   13 10 24.1 100.23     LegendNANA
23:00 16.3 15.5 95   21 15 24.1 100.27     Cloudy

Notes on Data Quality.

Legend

  • E = Estimated
  • M = Missing
  • NA = Not Available*
  • [empty] = Indicates an unobserved value
Date modified: